Main page
METAR-TAF:

METAR-TAF

Airports :

Dasht-e Naz Airport

Sari, Iran

latitude: 36-38-09N, longitude: 53-11-37E, elevation: 11 m

Current weather observation

The report was made 1 hour and 3 minutes ago, at 07:00 UTC
Wind 4 kt from the East
Temperature 9°C
Humidity 53%
Pressure 1025 hPa
Visibility 10 km or more
Few clouds at a height of 3000 ft

METAR: OINZ 200700Z 08004KT 9999 FEW030 09/00 Q1025

Time: 11:33 (08:03 UTC)


TAF: missing

Weather observations and forecasts of more than 4000 airports (METAR and TAF reports).

The available stations are represented by yellow and red dots on the map.

Hover mouse over dot to see the name of the station.

Then click to see weather observations and forecasts.

To change the map : click on the green buttons with a black cross to zoom in, on the green button with a dash to zoom out, or on the green arrows for adjacent maps.


METAR-TAF: